Location: Maiden
(35.5760°N, 81.2120°W)
Time: 21:08:02
(UTC-04:00)

Cosmos 1844 Rocket - Pass Details

Date: 14 June 2018
Orbit: 824 x 845 km, 71.0° (Epoch: 18 June)

Event Time Altitude Azimuth Distance (km) Brightness Sun altitude
Exits shadow 22:48:12 25° 92° (E) 1,648 3.9 -20.4°
Drops below altitude 10° 22:52:11 10° 48° (NE) 2,468 5.2 -20.9°
Sets 22:55:00 0° 36° (NE) 3,405 6.1 -21.2°
